Location: Baz C�houez
(48.4000°N, 4.9833°W)
Time: 07:08:33
(UTC+00:00)

Daily predictions for brighter satellites

Satellite Brightness Start Highest point End
(mag) Time Altitude Azimuth Time Altitude Azimuth Time Altitude Azimuth
Cosmos 1486 Rocket 4.3 17:29:13 10° SSW 17:34:27 71° WNW 17:39:41 10° NNE
Landsat 5 3.3 17:31:09 10° NNE 17:35:08 71° ESE 17:38:58 10° S
Cosmos 1953 4.1 17:31:47 10° NNW 17:35:27 36° W 17:39:06 10° SSW
CREW DRAGON DEMO-1 DEB 3.3 17:36:11 10° WNW 17:38:58 41° N 17:41:45 10° ENE
Lacrosse 5 2.3 17:34:10 10° NW 17:39:02 44° NNE 17:43:52 10° E
ADEOS Rocket 3.9 17:33:15 10° N 17:39:08 48° WNW 17:44:32 10° SW
Cosmos 1943 3.3 17:36:09 10° NNW 17:41:52 88° WSW 17:47:32 10° SSE
ISS -1.3 17:41:52 10° SSE 17:42:45 11° SE 17:43:37 10° ESE
Cosmos 1726 Rocket 4.0 17:38:45 10° N 17:42:53 40° ENE 17:47:00 10° SE
ERS-2 4.0 17:42:33 10° ENE 17:44:22 13° E 17:46:11 10° ESE
Cosmos 1939 Rocket 3.3 17:41:43 10° SE 17:45:36 42° ENE 17:49:29 10° N
Meteor 1-24 Rocket 3.7 17:42:36 10° S 17:47:47 53° E 17:52:57 10° NNE
COSMOS 2455 3.6 17:43:00 10° S 17:48:18 34° ESE 17:53:38 10° NE
Cosmos 1674 4.3 17:48:20 10° SW 17:51:55 37° WNW 17:55:31 10° N
Cosmos 1833 Rocket 4.5 17:49:48 10° N 17:52:19 13° NNE 17:54:41 10° NE
Cosmos 1315 Rocket 2.8 17:51:30 10° N 17:55:30 87° ENE 17:59:30 10° S
IRS-1C Rocket 4.5 17:51:45 10° SE 17:56:37 40° ENE 18:01:30 10° N
CZ-4 R/B 2.4 17:54:41 10° ESE 17:58:02 25° ENE 18:01:21 10° N
Feng Yun 1-1 Rocket 4.3 17:53:59 10° SE 17:59:16 55° ENE 18:04:41 10° N
NOSS 3-4 (A) 4.4 17:54:44 10° WSW 18:00:20 40° NNW 18:06:25 10° NE
NOSS 3-4 (C) 4.4 17:54:52 10° WSW 18:00:29 41° NNW 18:06:35 10° NE
COSMO-SKYMED 1 3.1 17:58:02 10° NNE 18:02:06 37° E 18:06:07 10° SSE
Cosmos 1503 Rocket 4.4 17:57:04 10° SSW 18:02:26 71° WNW 18:07:49 10° NNE
Cosmos 2279 Rocket 4.0 17:56:29 10° N 18:02:47 74° E 18:09:02 10° SSE
Cosmos 2227 4.3 17:59:36 10° SSW 18:05:14 79° WNW 18:10:58 10° NNE
Cosmos 2227 Rocket 4.3 18:04:41 10° W 18:08:44 20° NW 18:12:48 10° N
CZ-4B R/B 1.6 18:09:00 10° NNE 18:12:18 48° E 18:15:32 10° S
H-2A R/B 4.1 18:09:35 10° SSW 18:13:19 37° W 18:17:14 10° NNW
Okean-O 3.2 18:10:09 10° SE 18:14:08 34° ENE 18:18:10 10° N
Cosmos 1844 Rocket 3.4 18:10:34 10° SSE 18:15:31 32° ESE 18:19:24 15° NE
CZ-2C R/B 3.2 18:10:25 10° SSE 18:15:36 59° ENE 18:21:07 10° N
CSL-04 DEB 4.4 18:11:52 10° NNE 18:16:06 71° ESE 18:20:11 10° S
Okean O Rocket 2.5 18:12:38 10° S 18:17:00 54° W 18:21:22 10° NNW
Cosmos 1626 3.6 18:14:02 10° SW 18:17:29 37° WNW 18:20:58 10° N
ATLAS 2AS CENTAUR R/B 3.7 18:10:15 10° WSW 18:17:54 49° NW 18:25:22 10° NE
H-2A R/B 2.5 18:13:36 10° SE 18:18:09 37° ENE 18:22:50 10° N
Cosmos 1689 Rocket 3.9 18:20:00 15° ESE 18:20:00 15° ESE 18:21:02 10° SE
Aureole 2 Rocket 3.1 18:16:22 10° SSE 18:18:57 26° ESE 18:19:29 24° E
Cosmos 158 Rocket 4.4 18:15:53 10° NNW 18:20:55 41° ENE 18:25:59 10° SE
Cosmos 773 Rocket 4.4 18:17:02 10° NNW 18:22:09 65° WSW 18:27:12 10° S
Cosmos 1680 Rocket 4.2 18:18:07 10° N 18:22:47 31° NE 18:26:36 14° ESE
CZ-4B R/B 4.4 18:20:09 10° S 18:25:27 47° W 18:30:54 10° NNW
CZ-2D R/B 3.2 18:27:42 10° SSE 18:31:34 87° ENE 18:35:26 10° NNW
TELKOM 3 4.2 18:29:53 10° SW 18:32:02 29° SSE 18:32:11 29° SE
Cosmos 1818 4.1 18:27:02 10° S 18:32:03 40° ESE 18:34:52 23° ENE
SAR-Lupe-4 4.2 18:31:27 28° ENE 18:32:25 33° E 18:35:41 10° SSE
Meteor 2-10 Rocket 3.5 18:27:10 10° N 18:32:46 83° ENE 18:38:05 10° SSE
H-2A R/B 3.3 18:30:20 10° N 18:34:36 44° WNW 18:38:45 10° SW
Cosmos 489 Rocket 4.5 18:28:20 10° NNW 18:34:41 62° ENE 18:40:56 10° SE
YAOGAN 1 2.7 18:31:49 10° SSE 18:36:00 51° ENE 18:40:14 10° N
Cosmos 1892 Rocket 3.5 18:32:41 10° S 18:37:02 88° W 18:41:24 10° N
CSL-04 Rocket 4.0 18:34:59 10° SE 18:40:01 41° ENE 18:45:09 10° N
Helios 1A Rocket 3.1 18:36:58 10° SE 18:40:56 46° ENE 18:44:56 10° N
SAR-Lupe-1 4.3 18:42:36 38° ENE 18:43:20 44° E 18:46:46 10° S
RESURS DK-1 4.4 18:40:30 10° WSW 18:43:52 23° NW 18:47:15 10° N
Aureole 1 4.1 18:41:03 10° NNW 18:44:05 53° ENE 18:44:09 52° ENE
USA 234 3.7 18:40:19 23° ENE 18:44:05 46° NNE 18:50:17 10° WNW
ATLAS 5 CENTAUR R/B 2.6 18:40:32 10° WSW 18:44:26 40° NW 18:47:38 17° NNE
Cosmos 1092 Rocket 4.3 18:40:05 10° SSE 18:45:51 42° E 18:51:36 10° NNE
Iridium 4 Rocket 4.1 18:40:38 10° N 18:45:59 39° ENE 18:50:57 10° SSE
MOS 1 Rocket 2.9 18:42:03 10° NNE 18:46:24 78° ESE 18:50:40 10° S
Meteor 2-1 Rocket 4.1 18:41:32 10° N 18:47:09 72° ENE 18:52:38 10° SSE
Cosmos 1812 Rocket 4.0 18:44:50 10° N 18:48:54 36° ENE 18:48:54 36° ENE
SKYMED 2 3.7 18:45:52 10° N 18:50:13 74° WNW 18:54:33 10° SSW
Cosmos 2344 4.3 18:42:57 10° NW 18:51:32 54° NE 18:59:36 21° ESE
SJ 16-02 1.3 18:50:03 10° S 18:54:22 59° ESE 18:55:59 35° NE
SJ-11-01 4.2 18:50:29 10° SSE 18:55:09 68° ENE 18:59:49 10° N
Aureole 3 2.7 18:53:09 10° N 18:56:48 82° ENE 18:59:54 10° SSE
Cosmos 2112 Rocket 4.1 18:55:19 10° NNW 19:00:27 50° ENE 19:02:18 34° ESE
Cosmos 1455 2.1 18:57:16 10° N 19:01:05 85° W 19:04:55 10° S
CZ-4C R/B 3.8 18:57:48 10° WNW 19:02:30 27° NNW 19:06:30 15° NNE
Nadezhda 4 Rocket 3.9 18:56:51 10° S 19:03:08 88° E 19:09:22 10° N
Cosmos 2263 Rocket 3.7 19:00:07 10° WSW 19:05:10 32° NW 19:10:15 10° NNE
Cosmos 2058 Rocket 4.1 19:01:01 10° NNW 19:05:21 48° W 19:09:41 10° SSW
X-37B 2.4 19:03:26 10° SW 19:05:31 24° S 19:05:31 24° S
Cosmos 1703 4.1 19:04:32 10° S 19:07:02 36° SSE 19:07:02 36° SSE
CREW DRAGON DEMO-1 DEB 4.1 19:11:25 10° WNW 19:13:20 37° WNW 19:13:20 37° WNW
COSMOS 2406 3.8 19:09:37 10° NNW 19:14:49 38° NE 19:14:49 38° NE
ERS-2 2.8 19:16:37 28° N 19:18:13 52° WNW 19:21:45 10° SSW
ARGOS 3.0 19:13:16 10° SSE 19:18:38 84° ENE 19:24:02 10° NNW
ISS -2.6 19:15:38 10° SW 19:17:58 38° SSW 19:17:58 38° SSW
Okean 1-7 Rocket 4.4 19:14:30 10° SSW 19:18:56 51° WNW 19:23:25 10° N
Cosmos 44 4.1 19:15:30 10° S 19:18:46 34° SSE 19:18:46 34° SSE
Lacrosse 5 2.2 19:17:13 10° WNW 19:22:12 61° SW 19:24:15 34° SSE
PSLV R/B 4.3 19:19:54 23° N 19:22:24 64° WNW 19:26:35 10° SSW
CZ-2C R/B 2.8 19:27:19 55° ESE 19:27:19 55° ESE 19:32:28 10° S
CSL-04 Debris 4.2 19:23:33 10° SSE 19:28:56 80° WSW 19:34:21 10° NNW
Cosmos 1626 Rocket 3.7 19:25:24 10° SSW 19:29:45 72° W 19:31:13 41° N
NOSS 3-1 (C) 3.9 19:23:41 10° NW 19:31:02 75° NE 19:34:39 38° SE
CZ-4 R/B 3.0 19:29:09 10° SSW 19:32:56 34° W 19:36:40 10° NNW
COSMOS 2455 3.4 19:28:08 10° SW 19:34:01 54° NW 19:37:13 27° NNE
Cosmos 1553 Rocket 4.0 19:29:56 10° N 19:36:14 58° ENE 19:36:14 58° ENE
Cosmos 990 Rocket 4.0 19:31:44 10° SSW 19:36:24 66° SSE 19:36:24 66° SSE
Cosmos 1844 3.7 19:31:36 10° SSW 19:37:16 80° WNW 19:39:07 45° NNE
Cosmos 1833 Rocket 3.4 19:32:21 10° NNW 19:36:25 39° NNE 19:36:25 39° NNE
Cosmos 2082 Rocket 3.6 19:34:48 10° NNW 19:37:47 24° NNE 19:37:47 24° NNE
Cosmos 2026 Rocket 3.8 19:34:04 10° S 19:40:10 82° E 19:46:24 10° N
USA 281 4.2 19:43:33 29° NNE 19:43:33 29° NNE 19:47:44 10° NNW
SL-08 RB Rocket 4.2 19:43:21 51° NNW 19:43:21 51° NNW 19:46:46 10° NNW
Meteor 2-19 Rocket 4.4 19:39:03 10° S 19:44:22 61° SE 19:44:22 61° SE
USA 229 DEB 3.8 19:40:47 10° NW 19:48:03 72° NE 19:49:18 61° E
USA 229 3.8 19:40:54 10° NW 19:48:09 71° NE 19:49:21 61° E
USA 267 3.5 19:51:34 49° SSE 19:51:34 49° SSE 19:57:23 10° SSW
H-2A R/B 3.6 19:53:09 10° SSW 19:57:37 33° W 20:02:13 10° NNW
Cosmos 1844 Rocket 3.5 19:53:46 10° SW 19:59:13 48° NW 20:01:07 35° N
NOSS 3-1 (A) 3.9 19:56:15 10° NW 20:03:38 76° NE 20:04:26 70° E
Cosmos 1680 Rocket 4.5 20:00:05 10° NW 20:05:03 44° WSW 20:07:03 30° SSW
Cosmos 1898 Rocket 4.3 20:00:27 10° SSW 20:04:03 45° SW 20:04:03 45° SW
ATLAS 2AS CENTAUR R/B 4.3 20:04:19 10° WNW 20:10:47 27° N 20:12:56 24° NNE
Cosmos 2098 Rocket 4.4 20:05:48 10° SSW 20:12:54 76° W 20:20:24 10° N
Cosmos 1818 4.5 20:10:25 10° WSW 20:15:33 44° NW 20:15:33 44° NW
USA 234 3.4 20:27:40 68° NW 20:27:40 68° NW 20:33:19 10° NW
ATLAS 5 CENTAUR R/B 4.2 20:27:34 10° NW 20:29:10 15° NNW 20:29:10 15° NNW
SJ 16-02 3.8 20:30:11 10° W 20:33:02 19° WNW 20:33:02 19° WNW
CZ-4C R/B 4.4 20:48:28 10° NW 20:51:41 20° NNW 20:51:41 20° NNW
